Somerville, NJ

4:20 AM EST on November 21, 2019 (GMT -0500)
Somerset

Weather History for KSMQ - September, 2019

Change the Weather History Date:

Wednesday, September 25, 2019

  Actual Average Record
Temperature  
Mean Temperature 63 °F -  
Max Temperature 81 °F 69 °F 92 °F (1970)
Min Temperature 46 °F 46 °F 32 °F (1963)
Degree Days  
Heating Degree Days 2    
Growing Degree Days 13 (Base 50)    
Moisture  
Dew Point 50 °F    
Average Humidity 70    
Maximum Humidity 97    
Minimum Humidity 32    
Precipitation  
Precipitation 0.00 in - - ()
Sea Level Pressure  
Sea Level Pressure 29.87 in    
Wind  
Wind Speed 2 mph (NW)    
Max Wind Speed 9 mph    
Max Gust Speed -    
Visibility 10 miles    
Events      
Averages and records for this station are not official NWS values.
T = Trace of Precipitation, MM = Missing Value Source: NWS Daily Summary

Daily Weather History Graph

Daily Weather History Graph

Search for Another Location

Airport or City:

Astronomy

Sep. 25, 2019 Rise Set
Actual Time 6:48 AM EDT 6:51 PM EDT
Civil Twilight 6:21 AM EDT 7:18 PM EDT
Nautical Twilight 5:49 AM EDT 7:50 PM EDT
Astronomical Twilight 5:17 AM EDT 8:22 PM EDT
Moon 2:38 AM EDT (9/25) 5:22 PM EDT (9/25)
Length of Visible Light 12h 56m
Length of Day
12h 02m
Waning Crescent, 14% of the Moon is Illuminated
Sep 25
Waning Crescent
Sep 28
New
Oct 5
First Quarter
Oct 13
Full
Oct 21
Last Quarter

Hourly Weather History & Observations

Time (EDT) Temp. Dew Point Humidity Pressure Visibility Wind Dir Wind Speed Gust Speed Precip Events Conditions
12:53 AM 52.0 °F 50.0 °F 93% 29.88 in 10.0 mi NW 3.5 mph - N/A   Clear
1:53 AM 51.1 °F 48.9 °F 92% 29.88 in 6.0 mi Calm Calm - N/A   Clear
2:53 AM 50.0 °F 48.0 °F 93% 29.87 in 10.0 mi Calm Calm - N/A   Clear
3:53 AM 50.0 °F 48.0 °F 93% 29.87 in 10.0 mi Calm Calm - N/A   Clear
4:53 AM 48.9 °F 46.9 °F 93% 29.89 in 10.0 mi Calm Calm - N/A   Clear
6:53 AM 46.0 °F 45.0 °F 96% 29.91 in 5.0 mi Calm Calm - N/A   Clear
7:53 AM 48.9 °F 48.0 °F 97% 29.93 in 10.0 mi Calm Calm - N/A   Clear
8:53 AM 57.0 °F 53.1 °F 87% 29.92 in 10.0 mi Calm Calm - N/A   Clear
9:53 AM 66.0 °F 53.1 °F 63% 29.92 in 10.0 mi Calm Calm - N/A   Clear
10:53 AM 72.0 °F 52.0 °F 49% 29.91 in 10.0 mi Variable 4.6 mph - N/A   Clear
11:53 AM 75.0 °F 51.1 °F 43% 29.90 in 10.0 mi NW 6.9 mph - N/A   Clear
12:53 PM 75.9 °F 48.9 °F 38% 29.88 in 10.0 mi NW 9.2 mph - N/A   Partly Cloudy
1:53 PM 77.0 °F 48.9 °F 37% 29.85 in 10.0 mi NNW 8.1 mph - N/A   Partly Cloudy
2:53 PM 80.1 °F 48.9 °F 34% 29.83 in 10.0 mi North - - N/A   Partly Cloudy
3:53 PM 80.1 °F 48.0 °F 32% 29.81 in 10.0 mi Variable 4.6 mph - N/A   Clear
4:53 PM 80.1 °F 48.0 °F 32% 29.81 in 10.0 mi Calm Calm - N/A   Clear
5:53 PM 77.0 °F 48.0 °F 36% 29.81 in 10.0 mi Calm Calm - N/A   Clear
6:53 PM 66.0 °F 55.0 °F 68% 29.82 in 10.0 mi Calm Calm - N/A   Clear
7:53 PM 62.1 °F 54.0 °F 75% 29.83 in 10.0 mi Calm Calm - N/A   Clear
8:53 PM 59.0 °F 55.0 °F 87% 29.84 in 10.0 mi Calm Calm - N/A   Clear
9:53 PM 57.0 °F 54.0 °F 89% 29.85 in 10.0 mi Calm Calm - N/A   Clear
10:53 PM 54.0 °F 52.0 °F 93% 29.86 in 8.0 mi Calm Calm - N/A   Clear
11:53 PM 53.1 °F 51.1 °F 93% 29.86 in 9.0 mi Calm Calm - N/A   Clear